Weather History for Murcia Airport, Spain

Change the Weather History Date:

Sunday, January 20, 2013

  Actual Average Record
Temperature  
Mean Temperature 55 °F -  
Max Temperature 60 °F 59 °F 71 °F (1998)
Min Temperature 48 °F 43 °F 33 °F (1999)
Degree Days  
Heating Degree Days 10    
Growing Degree Days 5 (Base 50)    
Moisture  
Dew Point 33 °F    
Average Humidity 41    
Maximum Humidity 58    
Minimum Humidity 31    
Precipitation  
Precipitation 0.00 in 0.03 in - ()
Sea Level Pressure  
Sea Level Pressure 29.62 in    
Wind  
Wind Speed 13 mph ()    
Max Wind Speed 22 mph    
Max Gust Speed 33 mph    
Visibility 6.2 miles    
Events      
Averages and records for this station are not official NWS values.
T = Trace of Precipitation, MM = Missing Value Source: Averaged Metar Reports

Daily Weather History Graph

Daily Weather History Graph

Search for Another Location

Airport:

Trip Planner

Search our weather history database for the weather conditions in past years. The results will help you decide how hot, cold, wet, or windy it might be!

Date:

Astronomy

Jan. 20, 2013 Rise Set
Actual Time 8:15 AM CET 6:13 PM CET
Civil Twilight 7:46 AM CET 6:41 PM CET
Nautical Twilight 7:14 AM CET 7:13 PM CET
Astronomical Twilight 6:43 AM CET 7:45 PM CET
Moon 1:05 PM CET (1/20) 2:34 AM CET (1/20)
Length of Visible Light 10h 54m
Length of Day
9h 58m
Waxing Gibbous, 64% of the Moon is Illuminated
Jan 20
Waxing Gibbous
Jan 27
Full
Feb 3
Last Quarter
Feb 10
New
Feb 17
First Quarter

Hourly Weather History & Observations

Time (CET) Temp. Dew Point Humidity Pressure Visibility Wind Dir Wind Speed Gust Speed Precip Events Conditions
7:00 AM 53.6 °F 33.8 °F 47% 29.44 in 6.2 mi WNW 16.1 mph - N/A   Partly Cloudy
7:07 AM 55.4 °F 33.8 °F 44% 29.44 in 6.2 mi WNW 18.4 mph 32.2 mph N/A   Partly Cloudy
8:00 AM 55.4 °F 32.0 °F 41% 29.47 in 6.2 mi WNW 13.8 mph - N/A   Partly Cloudy
8:26 AM 53.6 °F 33.8 °F 47% 29.50 in 6.2 mi West 21.9 mph 33.4 mph N/A   Partly Cloudy
9:00 AM 55.4 °F 33.8 °F 44% 29.53 in 6.2 mi West 20.7 mph 33.4 mph N/A   Partly Cloudy
10:00 AM 55.4 °F 32.0 °F 41% 29.59 in 6.2 mi WNW 19.6 mph - N/A   Partly Cloudy
10:19 AM 55.4 °F 32.0 °F 41% 29.59 in 6.2 mi WNW 19.6 mph 32.2 mph N/A   Partly Cloudy
11:00 AM 57.2 °F 32.0 °F 38% 29.62 in 6.2 mi West 16.1 mph - N/A   Partly Cloudy
11:01 AM 59.0 °F 30.2 °F 34% 29.62 in 6.2 mi West 17.3 mph 28.8 mph N/A   Partly Cloudy
12:00 PM 59.0 °F 30.2 °F 34% 29.65 in 6.2 mi WNW 21.9 mph 33.4 mph N/A   Partly Cloudy
1:00 PM 60.8 °F 30.2 °F 31% 29.65 in 6.2 mi West 16.1 mph - N/A   Partly Cloudy
1:22 PM 60.8 °F 30.2 °F 31% 29.65 in 6.2 mi WNW 18.4 mph 31.1 mph N/A   Partly Cloudy
2:00 PM 59.0 °F 28.4 °F 31% 29.65 in 6.2 mi WNW 15.0 mph 26.5 mph N/A   Partly Cloudy
3:00 PM 59.0 °F 32.0 °F 36% 29.62 in 6.2 mi WNW 12.7 mph - N/A   Partly Cloudy
4:00 PM 59.0 °F 32.0 °F 36% 29.65 in 6.2 mi West 9.2 mph - N/A   Partly Cloudy
5:00 PM 57.2 °F 35.6 °F 44% 29.68 in - NW 3.5 mph - N/A   Clear
6:00 PM 57.2 °F 33.8 °F 41% 29.68 in - NW 4.6 mph - N/A   Clear
7:00 PM 55.4 °F 33.8 °F 44% 29.71 in - West 3.5 mph - N/A   Clear
8:00 PM 51.8 °F 35.6 °F 54% 29.74 in - West 5.8 mph - N/A   Clear
9:00 PM 50.0 °F 33.8 °F 54% 29.71 in - WSW 5.8 mph - N/A   Clear
10:00 PM 48.2 °F 33.8 °F 58% 29.74 in - WSW 5.8 mph - N/A   Clear